Location: 433rd Scouts Home(Lloyd Manor Park, Etobicoke )
(43.6722°N, 79.5542°W)
Time: 21:11:54
(UTC-04:00)

Envisat - Pass Details

Date: 25 September 2021
Orbit: 764 x 766 km, 98.2° (Epoch: 17 October)

Event Time Altitude Azimuth Distance (km) Brightness Sun altitude
Rises 04:59:22 0° 35° (NE) 3,239 7.2 -23.7°
Reaches altitude 10° 05:03:23 10° 66° (ENE) 2,305 6.6 -23.0°
Maximum altitude 05:05:12 12° 87° (E) 2,177 6.3 -22.7°
Drops below altitude 10° 05:07:01 10° 109° (ESE) 2,299 6.1 -22.4°
Sets 05:10:59 0° 140° (SE) 3,217 6.5 -21.8°
